Regional Weather Roundup
Issued by NWS

Home | Current Version | Previous Version | Text Only | Print | Product List | Glossary Off
Versions: 1 2 3 4 5 6 7 8 9 10 11 12 13 14 15 16 17 18 19 20 21 22 23 24 25 26 27 28 29 30 31 32 33 34 35 36 37 38 39 40 41 42 43 44 45 46 47 48 49 50

000
ASUS43 KIND 010559
RWRIN

WEATHER ROUNDUP FOR INDIANA
NATIONAL WEATHER SERVICE INDIANAPOLIS IN
200 AM EDT WED OCT 01 2014

NOTE: "FAIR" INDICATES FEW OR NO CLOUDS BELOW 12,000 FEET WITH NO
SIGNIFICANT WEATHER AND/OR OBSTRUCTIONS TO VISIBILITY.

* - STATION DOES NOT REPORT WEATHER SUCH AS PRECIPITATION OR FOG.

+ - STATION NOT QUALITY CONTROLLED BY THE NATIONAL WEATHER SERVICE.
    USE DATA WITH CAUTION...ESPECIALLY DEWPOINT AND RELATIVE
    HUMIDITY OBSERVATIONS.

INZ001>003-010>013-019-020-010700-
NORTHWEST INDIANA

CITY           SKY/WX    TMP DP  RH WIND       PRES   REMARKS
KNOX *+        PTCLDY    43  41  93 CALM      30.01F
VALPARAISO     NOT AVBL

$$

LMZ046-743>745-010700-
SOUTHERN LAKE MICHIGAN

STATION/POSITION TIME  TEMP WIND        PRES
                       AIR  DIR/SP/G
                 (UTC) (F)  (DEG/KT/KT) (MB)
MICHIGAN CITY    0500   54   50/  4/  5   N/A

$$

INZ004-005-014>016-021>024-010700-
NORTH CENTRAL INDIANA

CITY           SKY/WX    TMP DP  RH WIND       PRES   REMARKS
SOUTH BEND     NOT AVBL
WARSAW +       CLOUDY    54  46  76 E6        30.02F

$$

INZ006>009-017-018-025>027-010700-
NORTHEAST INDIANA

CITY           SKY/WX    TMP DP  RH WIND       PRES   REMARKS
ANGOLA *+      CLOUDY    52  48  87 E3        30.04R
FORT WAYNE     PTCLDY    52  47  83 E3        30.03R
6HR MIN TEMP:  52; 6HR MAX TEMP:  55;


$$

INZ028-029-035-036-043>045-051>053-010700-
WEST CENTRAL INDIANA

CITY           SKY/WX    TMP DP  RH WIND       PRES   REMARKS
GREENCASTLE +  CLEAR     52  46  82 E3        30.00S
LAFAYETTE      CLEAR     48  46  93 E8        30.00F
6HR MIN TEMP:  46; 6HR MAX TEMP:  58;

TERRE HAUTE    CLEAR     54  49  83 E7        29.97F
6HR MIN TEMP:  53; 6HR MAX TEMP:  66;


$$

INZ030>032-037>040-046>048-054>057-064-065-010700-
CENTRAL INDIANA

CITY           SKY/WX    TMP DP  RH WIND       PRES   REMARKS
FRANKFORT +    CLEAR    N/A N/A N/A E3        30.02S
INDIANAPOLIS   CLEAR     53  46  77 E8        29.99S
6HR MIN TEMP:  52; 6HR MAX TEMP:  64;

-EAGLE CREEK   CLEAR     50  45  83 E3        30.00S
6HR MIN TEMP:  50; 6HR MAX TEMP:  63;

KOKOMO *+      CLEAR     45  43  93 CALM      30.02S VSB 1
MT COMFORT *+  CLEAR     43 N/A N/A CALM      30.01S
SHELBYVILLE    CLEAR     50  46  86 NE3       30.00S
6HR MIN TEMP:  50; 6HR MAX TEMP:  64;

ZIONSVILLE +   CLEAR     44  41  89 CALM      30.01F
6HR MIN TEMP:  44; 6HR MAX TEMP:  57;


$$

INZ033-034-041-042-049-050-058-059-010700-
EAST CENTRAL INDIANA

CITY           SKY/WX    TMP DP  RH WIND       PRES   REMARKS
MUNCIE         CLEAR     44  43  96 CALM      30.01S FOG
6HR MIN TEMP:  42; 6HR MAX TEMP:  54;


$$

INZ060-061-067>069-081>083-085>088-010700-
SOUTHWEST INDIANA

CITY           SKY/WX    TMP DP  RH WIND       PRES   REMARKS
EVANSVILLE     CLEAR     63  59  87 NE5       29.94S
6HR MIN TEMP:  62; 6HR MAX TEMP:  75;


$$

INZ062-063-066-070>080-084-089>092-010700-
SOUTH CENTRAL AND SOUTHEAST INDIANA

CITY           SKY/WX    TMP DP  RH WIND       PRES   REMARKS
BLOOMINGTON    CLOUDY    56  50  80 E7        29.98S
6HR MIN TEMP:  56; 6HR MAX TEMP:  65;


$$



USA.gov is the U.S. government's official web portal to all federal, state and local government web resources and services.